FW0960 Weather Reports


Display with metric or nautical units.
time (UTC)temp
F
wind
direction
speed
MPH
gust
MPH
rain 1hr
in
rain 24hr
in
rain mn
in
humidity
%
barometer
mb
20260506111539 63 247 0.0 0.0 0.00 0.00 0.00 85 1013.0
20260506111039 63 247 0.0 1.0 0.00 0.00 0.00 85 1013.0
20260506110544 63 247 0.0 1.0 0.00 0.00 0.00 85 1013.1
20260506110042 62 247 0.0 2.0 0.00 0.00 0.00 85 1013.0
20260506105541 62 247 0.0 2.0 0.00 0.00 0.00 85 1013.1
20260506105044 62 245 0.0 0.0 0.00 0.00 0.00 85 1013.1
20260506104533 62 245 0.0 1.0 0.00 0.00 0.00 85 1013.2
20260506104044 62 245 0.0 2.0 0.00 0.00 0.00 85 1013.3
20260506103534 62 244 0.0 2.0 0.00 0.00 0.00 85 1013.3
20260506103040 62 234 0.0 0.0 0.00 0.00 0.00 86 1013.4
20260506102530 62 235 0.0 0.0 0.00 0.00 0.00 86 1013.2
20260506102036 62 235 0.0 0.0 0.00 0.00 0.00 86 1013.3
20260506101042 62 235 0.0 0.0 0.00 0.00 0.00 86 1012.9
20260506100533 62 235 0.0 0.0 0.00 0.00 0.00 86 1012.9
20260506095522 62 235 0.0 0.0 0.00 0.00 0.00 85 1012.9
20260506095019 62 235 0.0 0.0 0.00 0.00 0.00 85 1013.0
20260506094518 62 235 0.0 0.0 0.00 0.00 0.00 85 1013.0
20260506094013 62 235 0.0 0.0 0.00 0.00 0.00 85 1013.1
20260506093514 62 235 0.0 0.0 0.00 0.00 0.00 85 1013.0
20260506093017 62 235 0.0 0.0 0.00 0.00 0.00 85 1012.9
20260506092515 62 235 0.0 0.0 0.00 0.00 0.00 85 1013.0
20260506091515 62 235 0.0 0.0 0.00 0.00 0.00 85 1012.9
20260506091015 62 232 0.0 0.0 0.00 0.00 0.00 85 1012.9
20260506090515 63 232 0.0 0.0 0.00 0.00 0.00 85 1013.0
20260506090009 63 232 0.0 0.0 0.00 0.00 0.00 84 1012.9
20260506085508 63 232 0.0 2.0 0.00 0.00 0.00 84 1012.9
20260506085009 63 232 0.0 2.0 0.00 0.00 0.00 84 1013.2
20260506084512 63 238 0.0 2.0 0.00 0.00 0.00 84 1013.2
20260506084009 63 238 0.0 2.0 0.00 0.00 0.00 84 1013.1
20260506083511 63 236 0.0 1.0 0.00 0.00 0.00 84 1013.1
20260506083010 63 224 0.0 2.0 0.00 0.00 0.00 84 1013.1
20260506082509 63 224 0.0 2.0 0.00 0.00 0.00 84 1013.3
20260506081504 63 175 0.0 2.0 0.00 0.00 0.00 84 1013.2
20260506080505 63 189 0.0 2.0 0.00 0.00 0.00 84 1013.3
20260506073505 63 164 0.0 5.0 0.00 0.00 0.00 84 1013.2
20260506073011 63 163 0.0 5.0 0.00 0.00 0.00 84 1013.2
20260506072505 63 221 0.0 2.0 0.00 0.00 0.00 84 1013.1
20260506072008 63 215 0.0 2.0 0.00 0.00 0.00 84 1013.1
20260506071504 63 205 0.0 2.0 0.00 0.00 0.00 84 1013.2
20260506071002 63 205 0.0 2.0 0.00 0.00 0.00 84 1013.3
20260506070504 63 241 0.0 2.0 0.00 0.00 0.00 84 1013.3
20260506062454 64 229 0.0 1.0 0.00 0.00 0.00 82 1013.5
20260506061947 64 240 0.0 1.0 0.00 0.00 0.00 82 1013.5
20260506061445 64 239 0.0 2.0 0.00 0.00 0.00 82 1013.5
20260506060932 64 203 0.0 2.0 0.00 0.00 0.00 82 1013.5
20260506060426 64 179 0.0 2.0 0.00 0.00 0.00 82 1013.5
20260506051407 65 160 0.0 2.0 0.00 0.00 0.00 80 1013.8
20260506050911 65 163 0.0 2.0 0.00 0.00 0.00 80 1013.9
20260506050406 65 162 0.0 2.0 0.00 0.00 0.00 80 1014.0
20260506044905 66 236 0.0 2.0 0.00 0.00 0.00 80 1014.0
20260506044405 66 132 0.0 2.0 0.00 0.00 0.00 80 1014.0
20260506041856 66 164 0.0 3.0 0.00 0.00 0.00 79 1014.0
20260506040844 66 127 1.0 2.0 0.00 0.00 0.00 79 1013.9
20260506040342 66 200 0.0 2.0 0.00 0.00 0.00 79 1013.9
20260506035842 66 283 0.0 2.0 0.00 0.00 0.00 79 1013.9
20260506035342 66 257 1.0 2.0 0.00 0.00 0.00 79 1014.0
20260506034336 66 238 1.0 2.0 0.00 0.00 0.00 79 1013.9
20260506033837 67 346 1.0 2.0 0.00 0.00 0.00 78 1014.0
20260506033339 67 351 0.0 2.0 0.00 0.00 0.00 78 1014.0
20260506032833 67 305 0.0 1.0 0.00 0.00 0.00 78 1014.0
20260506032333 67 295 0.0 2.0 0.00 0.00 0.00 78 1013.9
20260506031831 67 274 1.0 2.0 0.00 0.00 0.00 78 1014.0
20260506031330 67 316 0.0 2.0 0.00 0.00 0.00 78 1014.0
20260506030832 67 32 0.0 1.0 0.00 0.00 0.00 78 1014.0
20260506030333 67 306 0.0 2.0 0.00 0.00 0.00 77 1014.0
20260506025832 67 290 0.0 2.0 0.00 0.00 0.00 77 1014.0
20260506025331 67 38 0.0 3.0 0.00 0.00 0.00 77 1014.0
20260506024833 67 69 0.0 3.0 0.00 0.00 0.00 77 1014.1
20260506024334 67 313 0.0 2.0 0.00 0.00 0.00 77 1014.0
20260506023832 67 227 0.0 2.0 0.00 0.00 0.00 77 1014.0
20260506023333 67 158 0.0 2.0 0.00 0.00 0.00 77 1014.2
20260506022833 67 158 0.0 2.0 0.00 0.00 0.00 77 1014.0
20260506022335 68 92 0.0 3.0 0.00 0.00 0.00 76 1014.0
20260506021829 68 109 0.0 3.0 0.00 0.00 0.00 76 1014.0
20260506021330 68 307 0.0 2.0 0.00 0.00 0.00 75 1014.2
20260506020829 68 156 0.0 2.0 0.00 0.00 0.00 76 1014.0
20260506020331 68 265 0.0 2.0 0.00 0.00 0.00 75 1014.0
20260506015330 68 42 0.0 0.0 0.00 0.00 0.00 75 1013.9
20260506014838 68 42 0.0 0.0 0.00 0.00 0.00 75 1013.9
20260506014330 68 42 0.0 0.0 0.00 0.00 0.00 75 1014.0
20260506013831 68 42 0.0 0.0 0.00 0.00 0.00 76 1013.9
20260506013338 68 49 0.0 0.0 0.00 0.00 0.00 76 1013.9
20260506012330 68 57 0.0 1.0 0.00 0.00 0.00 76 1013.8
20260506011831 68 54 0.0 1.0 0.00 0.00 0.00 76 1013.8
20260506011330 68 47 0.0 1.0 0.00 0.00 0.00 77 1013.7
20260506010832 68 53 0.0 0.0 0.00 0.00 0.00 77 1013.7
20260506010330 68 53 0.0 0.0 0.00 0.00 0.00 77 1013.7
20260506005337 68 41 0.0 0.0 0.00 0.00 0.00 77 1013.6
20260506004839 68 41 0.0 0.0 0.00 0.00 0.00 77 1013.4
20260506004335 68 41 0.0 0.0 0.00 0.00 0.00 77 1013.4
20260506003830 68 40 0.0 0.0 0.00 0.00 0.00 77 1013.4
20260506003332 68 40 0.0 0.0 0.00 0.00 0.00 77 1013.2
20260506002330 68 40 0.0 0.0 0.00 0.00 0.00 76 1013.2
20260506001834 68 40 0.0 1.0 0.00 0.00 0.00 76 1013.1
20260506000829 69 41 0.0 0.0 0.00 0.00 0.00 75 1013.1
20260506000332 69 41 0.0 0.0 0.00 0.00 0.00 75 1013.1
20260505235834 69 41 0.0 1.0 0.00 0.00 0.00 74 1013.1
20260505235331 69 41 1.0 1.0 0.00 0.00 0.00 74 1013.0
20260505234327 69 53 1.0 2.0 0.00 0.00 0.00 72 1013.0
20260505233828 69 76 0.0 2.0 0.00 0.00 0.00 72 1012.9
20260505233324 70 86 0.0 2.0 0.00 0.00 0.00 71 1012.9
20260505232826 70 89 0.0 2.0 0.00 0.00 0.00 70 1012.8
20260505232325 70 103 0.0 2.0 0.00 0.00 0.00 70 1013.0
20260505231825 70 104 0.0 0.0 0.00 0.00 0.00 69 1012.9
20260505230343 71 112 1.0 3.0 0.00 0.00 0.00 68 1012.9
20260505225320 71 355 1.0 2.0 0.00 0.00 0.00 68 1012.8
20260505224821 72 350 1.0 2.0 0.00 0.00 0.00 67 1012.7
20260505223819 72 345 1.0 2.0 0.00 0.00 0.00 66 1012.8
20260505222812 73 355 1.0 2.0 0.00 0.00 0.00 65 1012.8
20260505221816 73 355 1.0 2.0 0.00 0.00 0.00 65 1012.9
20260505220810 74 314 1.0 3.0 0.00 0.00 0.00 64 1012.8
20260505220316 74 278 1.0 3.0 0.00 0.00 0.00 64 1012.8
20260505215807 74 355 1.0 2.0 0.00 0.00 0.00 64 1012.6
20260505215305 74 298 1.0 2.0 0.00 0.00 0.00 63 1012.5
20260505214805 74 344 1.0 2.0 0.00 0.00 0.00 63 1012.6
20260505213759 75 350 1.0 2.0 0.00 0.00 0.00 63 1012.5
20260505212246 75 355 1.0 2.0 0.00 0.00 0.00 61 1012.4
20260505211744 76 355 1.0 2.0 0.00 0.00 0.00 61 1012.6
20260505211242 76 351 1.0 2.0 0.00 0.00 0.00 61 1012.7
20260505210244 76 0 1.0 3.0 0.00 0.00 0.00 60 1012.6
20260505205238 77 350 1.0 3.0 0.00 0.00 0.00 59 1012.4
20260505204739 77 355 1.0 3.0 0.00 0.00 0.00 60 1012.3
20260505204238 77 355 1.0 2.0 0.00 0.00 0.00 60 1012.3
20260505203745 77 351 0.0 2.0 0.00 0.00 0.00 61 1012.4
20260505203235 77 355 1.0 2.0 0.00 0.00 0.00 60 1012.4
20260505202739 78 355 1.0 2.0 0.00 0.00 0.00 60 1012.5
20260505202236 78 355 1.0 2.0 0.00 0.00 0.00 58 1012.5
20260505201742 78 355 1.0 2.0 0.00 0.00 0.00 58 1012.7
20260505201230 79 355 1.0 2.0 0.00 0.00 0.00 58 1012.7
20260505200730 79 351 1.0 2.0 0.00 0.00 0.00 57 1012.7
20260505200231 79 351 1.0 2.0 0.00 0.00 0.00 57 1012.8
20260505195732 79 355 1.0 3.0 0.00 0.00 0.00 57 1012.7
20260505195229 79 350 1.0 3.0 0.00 0.00 0.00 57 1012.8
20260505194216 80 39 1.0 3.0 0.00 0.00 0.00 56 1012.7
20260505193718 80 72 1.0 3.0 0.00 0.00 0.00 56 1012.8
20260505192712 83 0 1.0 4.0 0.00 0.00 0.00 49 1012.9
20260505192211 83 344 1.0 4.0 0.00 0.00 0.00 40 1012.9
20260505191205 83 314 1.0 2.0 0.00 0.00 0.00 41 1012.9
20260505190702 83 266 1.0 2.0 0.00 0.00 0.00 42 1013.0
20260505190203 83 305 1.0 3.0 0.00 0.00 0.00 40 1012.9
20260505185702 83 213 1.0 3.0 0.00 0.00 0.00 39 1013.0
20260505183709 82 111 1.0 4.0 0.00 0.00 0.00 48 1012.9
20260505183204 82 150 1.0 3.0 0.00 0.00 0.00 46 1013.0
20260505182728 82 331 0.0 2.0 0.00 0.00 0.00 47 1013.1
20260505182203 82 297 1.0 4.0 0.00 0.00 0.00 51 1013.0
20260505181209 82 166 1.0 4.0 0.00 0.00 0.00 49 1013.2
20260505180711 82 74 1.0 4.0 0.00 0.00 0.00 48 1013.2
20260505180206 82 252 0.0 3.0 0.00 0.00 0.00 51 1013.2
20260505175657 82 109 0.0 3.0 0.00 0.00 0.00 49 1013.3
20260505175150 81 198 1.0 6.0 0.00 0.00 0.00 52 1013.4
20260505174648 81 333 1.0 6.0 0.00 0.00 0.00 48 1013.4
20260505173636 81 127 1.0 6.0 0.00 0.00 0.00 49 1013.3
20260505173138 81 123 1.0 4.0 0.00 0.00 0.00 49 1013.4
20260505172640 80 119 1.0 4.0 0.00 0.00 0.00 49 1013.4
20260505172138 80 133 1.0 5.0 0.00 0.00 0.00 49 1013.4
20260505171137 80 185 1.0 4.0 0.00 0.00 0.00 48 1013.4
20260505170135 80 105 1.0 3.0 0.00 0.00 0.00 49 1013.4
20260505165634 80 225 0.0 3.0 0.00 0.00 0.00 51 1013.5
20260505165143 80 148 0.0 3.0 0.00 0.00 0.00 52 1013.6
20260505164135 79 153 0.0 4.0 0.00 0.00 0.00 49 1013.5
20260505163636 79 130 1.0 4.0 0.00 0.00 0.00 51 1013.5
20260505162633 78 180 0.0 3.0 0.00 0.00 0.00 51 1013.7
20260505162138 78 133 0.0 3.0 0.00 0.00 0.00 53 1013.8
20260505161633 78 146 0.0 3.0 0.00 0.00 0.00 53 1013.9
20260505161129 78 150 0.0 3.0 0.00 0.00 0.00 53 1013.8
20260505160631 78 181 1.0 2.0 0.00 0.00 0.00 53 1014.0
20260505160133 77 165 1.0 3.0 0.00 0.00 0.00 54 1014.0
20260505153144 76 219 0.0 4.0 0.00 0.00 0.00 57 1013.9
20260505151629 75 161 1.0 4.0 0.00 0.00 0.00 56 1014.0
20260505151128 74 99 1.0 4.0 0.00 0.00 0.00 56 1014.0
20260505150625 74 117 1.0 3.0 0.00 0.00 0.00 58 1014.1
20260505150124 74 182 1.0 3.0 0.00 0.00 0.00 58 1014.1
20260505140605 71 103 1.0 3.0 0.00 0.00 0.00 63 1014.3
20260505124604 62 117 0.0 3.0 0.00 0.00 0.00 85 1014.2
20260505124103 61 162 0.0 4.0 0.00 0.00 0.00 85 1014.1
20260505123101 62 163 1.0 4.0 0.00 0.00 0.00 84 1014.1
20260505122604 62 113 0.0 2.0 0.00 0.00 0.00 84 1014.1
20260505122104 63 90 0.0 4.0 0.00 0.00 0.00 82 1014.1
20260505120603 64 193 1.0 7.0 0.00 0.00 0.00 77 1014.1
20260505120100 63 43 0.0 7.0 0.00 0.00 0.00 77 1014.1
20260505115601 63 153 0.0 9.0 0.00 0.00 0.00 78 1014.1
20260505115104 63 151 0.0 9.0 0.00 0.00 0.00 77 1014.1
20260505114105 63 139 0.0 4.0 0.00 0.00 0.00 78 1014.1
20260505113605 62 155 0.0 4.0 0.00 0.00 0.00 78 1014.1
20260505113103 62 178 0.0 2.0 0.00 0.00 0.00 78 1014.1
20260505112555 62 144 0.0 3.0 0.00 0.00 0.00 79 1014.0
20260505112059 62 153 1.0 3.0 0.00 0.00 0.00 79 1014.0